Weather History for Chillicothe, MO

Change the Weather History Date:

Friday, September 20, 2013

  Actual Average (KIRK) Record (KIRK)
Temperature  
Mean Temperature 63 °F 63 °F  
Max Temperature 73 °F 74 °F 94 °F (1931)
Min Temperature 53 °F 51 °F 32 °F (1991)
Degree Days  
Heating Degree Days 2 4  
Month to date heating degree days 40  
Since 1 July heating degree days 47  
Cooling Degree Days 0 2  
Month to date cooling degree days 70  
Year to date cooling degree days 914  
Growing Degree Days 13 (Base 50)    
Moisture  
Dew Point 52 °F    
Average Humidity 67    
Maximum Humidity 90    
Minimum Humidity 41    
Precipitation  
Precipitation 0.00 in 0.13 in 1.76 in (1925)
Month to date precipitation 2.91  
Year to date precipitation 30.32  
Sea Level Pressure  
Sea Level Pressure 29.96 in    
Wind  
Wind Speed 4 mph (NW)    
Max Wind Speed 10 mph    
Max Gust Speed 17 mph    
T = Trace of Precipitation, MM = Missing Value Source: NWS Daily Summary

Daily Weather History Graph

Daily Weather History Graph

Search for Another Location

Airport:

Trip Planner

Search our weather history database for the weather conditions in past years. The results will help you decide how hot, cold, wet, or windy it might be!

Date:

Astronomy

Sep. 20, 2013 Rise Set
Actual Time 7:00 AM CDT 7:14 PM CDT
Civil Twilight 6:33 AM CDT 7:41 PM CDT
Nautical Twilight 6:01 AM CDT 8:12 PM CDT
Astronomical Twilight 5:29 AM CDT 8:44 PM CDT
Moon 7:48 PM CDT (9/20) 8:15 AM CDT (9/20)
Length of Visible Light 13h 07m
Length of Day
12h 13m
Full, 98% of the Moon is Illuminated
Sep 20
Full
Sep 26
Last Quarter
Oct 4
New
Oct 11
First Quarter
Oct 18
Full

Hourly Weather History & Observations

Time (CDT) Temp. Dew Point Humidity Pressure Visibility Wind Dir Wind Speed Gust Speed Precip Events Conditions
12:52 AM 68.0 °F 64.9 °F 90% 29.87 in - Calm Calm - N/A   Unknown
1:52 AM 66.9 °F 64.0 °F 90% 29.90 in - Calm Calm - N/A   Unknown
2:52 AM 66.0 °F 60.1 °F 81% 29.92 in - NW 5.8 mph - N/A   Unknown
3:52 AM 63.0 °F 55.9 °F 78% 29.92 in - NW 8.1 mph - N/A   Unknown
4:52 AM 62.1 °F 55.0 °F 78% 29.93 in - Variable 4.6 mph - N/A   Unknown
5:52 AM 62.1 °F 55.0 °F 78% 29.94 in - Variable 5.8 mph - N/A   Unknown
6:52 AM 61.0 °F 54.0 °F 78% 29.97 in - NW 6.9 mph - N/A   Unknown
7:52 AM 61.0 °F 53.1 °F 75% 30.00 in - NW 4.6 mph - N/A   Unknown
8:52 AM 62.1 °F 52.0 °F 70% 30.00 in - NW 8.1 mph - N/A   Unknown
9:52 AM 63.0 °F 51.1 °F 65% 30.01 in - Variable 5.8 mph - N/A   Unknown
10:52 AM 64.9 °F 48.9 °F 56% 30.02 in - NNW 10.4 mph - N/A   Unknown
11:52 AM 66.0 °F 48.0 °F 52% 30.01 in - NW 9.2 mph 17.3 mph N/A   Unknown
12:52 PM 66.9 °F 48.0 °F 51% 29.99 in - NW 9.2 mph - N/A   Unknown
1:52 PM 69.1 °F 46.0 °F 44% 29.98 in - NW 8.1 mph - N/A   Unknown
2:52 PM 70.0 °F 46.9 °F 44% 29.96 in - NW 10.4 mph 16.1 mph N/A   Unknown
3:52 PM 71.1 °F 46.9 °F 42% 29.95 in - Variable 6.9 mph - N/A   Unknown
4:52 PM 72.0 °F 46.9 °F 41% 29.94 in - North 6.9 mph - N/A   Unknown
5:52 PM 71.1 °F 46.9 °F 42% 29.94 in - Variable 3.5 mph - N/A   Unknown
6:52 PM 66.9 °F 48.9 °F 52% 29.95 in - Calm Calm - N/A   Unknown
7:52 PM 61.0 °F 53.1 °F 75% 29.96 in - Calm Calm - N/A   Unknown
8:52 PM 57.9 °F 51.1 °F 78% 29.98 in - Calm Calm - N/A   Unknown
9:52 PM 55.0 °F 51.1 °F 86% 29.99 in - Calm Calm - N/A   Unknown
10:52 PM 54.0 °F 50.0 °F 86% 29.99 in - Calm Calm - N/A   Unknown
11:52 PM 53.1 °F 48.9 °F 86% 29.99 in - Calm Calm - N/A   Unknown